EAG5534 LIMJ-LFKJ

Flight info

Callsign EAG5534
Flight time 0h 53m
Altitude 19000
Route UNITA DCT TORTU
Aircraft AT76/M-SDFGIRY/S

Departure

Time 2026-04-21 19:08
Airport Genoa Cristoforo Colombo Airport (LIMJ)

Arrival

Time 2026-04-21 20:01
Airport Ajaccio Napoléon Bonaparte airport (LFKJ)
Time Latitude Longitude Altitude Speed Heading
2026-04-21 17:54 44.41261 8.85124 16 ft 0 kts 195°
2026-04-21 18:54 44.41261 8.85125 16 ft 0 kts 195°
2026-04-21 18:55 44.41268 8.85127 16 ft 3 kts 193°
2026-04-21 18:55 44.41295 8.85133 18 ft 3 kts 176°
2026-04-21 18:55 44.41313 8.85128 19 ft 3 kts 145°
2026-04-21 18:55 44.41323 8.85114 19 ft 1 kts 105°
2026-04-21 18:56 44.41324 8.85106 20 ft 0 kts 105°
2026-04-21 18:58 44.41322 8.85116 19 ft 3 kts 105°
2026-04-21 18:58 44.41316 8.85152 17 ft 5 kts 105°
2026-04-21 18:58 44.41304 8.85202 16 ft 5 kts 122°
2026-04-21 18:59 44.41281 8.85246 16 ft 6 kts 142°
2026-04-21 18:59 44.41246 8.85279 16 ft 6 kts 160°
2026-04-21 18:59 44.41203 8.85274 16 ft 7 kts 188°
2026-04-21 18:59 44.41158 8.85254 16 ft 7 kts 194°
2026-04-21 19:00 44.41153 8.85253 16 ft 0 kts 191°
2026-04-21 19:02 44.41147 8.85251 -3 ft 3 kts 194°
2026-04-21 19:03 44.41112 8.85237 16 ft 7 kts 195°
2026-04-21 19:03 44.41096 8.85232 16 ft 0 kts 195°
2026-04-21 19:07 44.41075 8.85217 17 ft 10 kts 208°
2026-04-21 19:07 44.41014 8.85159 13 ft 11 kts 247°
2026-04-21 19:07 44.41053 8.84916 15 ft 52 kts 285°
2026-04-21 19:07 44.41197 8.84168 19 ft 107 kts 284°
2026-04-21 19:08 44.41420 8.82973 165 ft 138 kts 283°
2026-04-21 19:08 44.41663 8.81622 562 ft 151 kts 283°
2026-04-21 19:08 44.41773 8.80141 1079 ft 153 kts 259°
2026-04-21 19:08 44.41218 8.79003 1751 ft 142 kts 205°
2026-04-21 19:09 44.40274 8.78772 2336 ft 138 kts 183°
2026-04-21 19:09 44.39274 8.78715 2553 ft 160 kts 179°
2026-04-21 19:09 44.37947 8.78827 1950 ft 220 kts 174°
2026-04-21 19:09 44.36297 8.79018 1430 ft 251 kts 176°
2026-04-21 19:10 44.34543 8.79172 1455 ft 247 kts 176°
2026-04-21 19:10 44.32892 8.79401 1911 ft 230 kts 169°
2026-04-21 19:10 44.31380 8.79869 2476 ft 217 kts 166°
2026-04-21 19:10 44.29957 8.80397 3077 ft 207 kts 164°
2026-04-21 19:11 44.28584 8.80805 3660 ft 199 kts 173°
2026-04-21 19:11 44.27200 8.81003 4129 ft 200 kts 175°
2026-04-21 19:11 44.25810 8.81107 4668 ft 201 kts 179°
2026-04-21 19:11 44.24404 8.81079 5084 ft 202 kts 183°
2026-04-21 19:12 44.23000 8.80979 5485 ft 203 kts 184°
2026-04-21 19:12 44.21590 8.80879 5902 ft 203 kts 184°
2026-04-21 19:12 44.20174 8.80792 6312 ft 204 kts 184°
2026-04-21 19:12 44.18765 8.80707 6682 ft 206 kts 185°
2026-04-21 19:13 44.17328 8.80622 7042 ft 207 kts 185°
2026-04-21 19:13 44.15879 8.80535 7399 ft 209 kts 185°
2026-04-21 19:13 44.14420 8.80453 7760 ft 211 kts 185°
2026-04-21 19:13 44.12986 8.80850 8086 ft 216 kts 152°
2026-04-21 19:14 44.11737 8.82097 8240 ft 227 kts 142°
2026-04-21 19:14 44.10511 8.83581 8292 ft 240 kts 140°
2026-04-21 19:14 44.09242 8.85172 8317 ft 250 kts 139°
2026-04-21 19:14 44.07932 8.86803 8451 ft 254 kts 140°
2026-04-21 19:15 44.06590 8.88427 8589 ft 257 kts 141°
2026-04-21 19:15 44.05206 8.90040 8739 ft 261 kts 142°
2026-04-21 19:15 44.03814 8.91662 8882 ft 260 kts 142°
2026-04-21 19:15 44.02426 8.93278 9025 ft 261 kts 142°
2026-04-21 19:16 44.01021 8.94908 9172 ft 264 kts 142°
2026-04-21 19:16 43.99607 8.96551 9318 ft 266 kts 142°
2026-04-21 19:16 43.98200 8.98183 9463 ft 267 kts 142°
2026-04-21 19:16 43.96774 8.99840 9609 ft 268 kts 142°
2026-04-21 19:17 43.93579 9.02177 9892 ft 261 kts 175°
2026-04-21 19:17 43.91814 9.02725 10022 ft 265 kts 156°
2026-04-21 19:17 43.90275 9.04151 10159 ft 267 kts 146°
2026-04-21 19:18 43.88781 9.05715 10296 ft 270 kts 144°
2026-04-21 19:18 43.87287 9.07324 10432 ft 273 kts 144°
2026-04-21 19:18 43.85827 9.08924 10877 ft 261 kts 143°
2026-04-21 19:18 43.84446 9.10463 11418 ft 249 kts 143°
2026-04-21 19:19 43.83128 9.11956 11927 ft 242 kts 143°
2026-04-21 19:19 43.81844 9.13424 12274 ft 243 kts 143°
2026-04-21 19:19 43.80533 9.14924 12628 ft 245 kts 143°
2026-04-21 19:19 43.79213 9.16436 12979 ft 247 kts 143°
2026-04-21 19:20 43.77882 9.17964 13333 ft 250 kts 143°
2026-04-21 19:20 43.76541 9.19509 13678 ft 252 kts 143°
2026-04-21 19:20 43.75187 9.21061 13978 ft 252 kts 147°
2026-04-21 19:20 43.73617 9.21956 14177 ft 241 kts 184°
2026-04-21 19:21 43.72063 9.21486 14382 ft 222 kts 221°
2026-04-21 19:21 43.71131 9.19967 14617 ft 203 kts 253°
2026-04-21 19:21 43.70779 9.18122 14810 ft 195 kts 274°
2026-04-21 19:21 43.70636 9.16253 14938 ft 208 kts 250°
2026-04-21 19:22 43.69544 9.14757 15007 ft 239 kts 218°
2026-04-21 19:22 43.68046 9.13670 15288 ft 245 kts 215°
2026-04-21 19:22 43.66497 9.12641 15641 ft 248 kts 213°
2026-04-21 19:22 43.64927 9.11643 15980 ft 250 kts 213°
2026-04-21 19:23 43.63358 9.10673 16327 ft 251 kts 213°
2026-04-21 19:23 43.61753 9.09700 16663 ft 253 kts 212°
2026-04-21 19:23 43.60135 9.08729 16959 ft 255 kts 212°
2026-04-21 19:23 43.58503 9.07751 17287 ft 256 kts 212°
2026-04-21 19:24 43.56858 9.06774 17610 ft 258 kts 212°
2026-04-21 19:24 43.55206 9.05799 17922 ft 259 kts 212°
2026-04-21 19:24 43.53544 9.04822 18232 ft 260 kts 212°
2026-04-21 19:24 43.51873 9.03846 18490 ft 261 kts 212°
2026-04-21 19:25 43.50192 9.02868 18737 ft 263 kts 212°
2026-04-21 19:25 43.48485 9.01870 18845 ft 270 kts 212°
2026-04-21 19:25 43.46734 9.00831 18889 ft 277 kts 212°
2026-04-21 19:25 43.44943 8.99748 18917 ft 284 kts 212°
2026-04-21 19:26 43.43116 8.98628 18933 ft 290 kts 212°
2026-04-21 19:26 43.41256 8.97481 18940 ft 295 kts 212°
2026-04-21 19:26 43.39369 8.96309 18943 ft 299 kts 212°
2026-04-21 19:26 43.37493 8.95140 18946 ft 298 kts 212°
2026-04-21 19:27 43.35618 8.93973 18941 ft 293 kts 212°
2026-04-21 19:27 43.33750 8.92821 18942 ft 297 kts 212°
2026-04-21 19:27 43.31858 8.91655 18942 ft 298 kts 212°
2026-04-21 19:27 43.29958 8.90480 18945 ft 300 kts 212°
2026-04-21 19:28 43.28043 8.89293 18929 ft 303 kts 212°
2026-04-21 19:28 43.26000 8.88437 18935 ft 314 kts 194°
2026-04-21 19:28 43.23813 8.88139 18939 ft 317 kts 192°
2026-04-21 19:28 43.21626 8.87827 18942 ft 312 kts 195°
2026-04-21 19:29 43.19528 8.87297 18942 ft 302 kts 201°
2026-04-21 19:29 43.17536 8.86492 18942 ft 296 kts 206°
2026-04-21 19:29 43.15603 8.85567 18942 ft 293 kts 207°
2026-04-21 19:29 43.13675 8.84640 18943 ft 292 kts 207°
2026-04-21 19:30 43.11755 8.83748 18941 ft 293 kts 206°
2026-04-21 19:30 43.09824 8.82886 18944 ft 298 kts 206°
2026-04-21 19:30 43.07833 8.82003 18943 ft 303 kts 205°
2026-04-21 19:30 43.05812 8.81114 18946 ft 306 kts 205°
2026-04-21 19:31 43.03770 8.80211 18947 ft 309 kts 205°
2026-04-21 19:31 43.01712 8.79306 18947 ft 311 kts 205°
2026-04-21 19:31 42.99645 8.78395 18942 ft 313 kts 205°
2026-04-21 19:31 42.97562 8.77475 18942 ft 314 kts 205°
2026-04-21 19:32 42.95478 8.76560 18939 ft 315 kts 205°
2026-04-21 19:32 42.93384 8.75638 18939 ft 316 kts 205°
2026-04-21 19:32 42.91287 8.74715 18939 ft 317 kts 205°
2026-04-21 19:32 42.89186 8.73792 18926 ft 317 kts 204°
2026-04-21 19:33 42.87796 8.73183 18931 ft 317 kts 204°
2026-04-21 19:33 42.85004 8.71963 18934 ft 318 kts 204°
2026-04-21 19:33 42.82902 8.71039 18929 ft 318 kts 204°
2026-04-21 19:33 42.80802 8.70122 18931 ft 314 kts 204°
2026-04-21 19:34 42.78731 8.69215 18939 ft 312 kts 204°
2026-04-21 19:34 42.76668 8.68313 18935 ft 311 kts 204°
2026-04-21 19:34 42.74618 8.67417 18933 ft 306 kts 204°
2026-04-21 19:34 42.72604 8.66540 18938 ft 302 kts 204°
2026-04-21 19:35 42.70607 8.65670 18937 ft 299 kts 204°
2026-04-21 19:35 42.66691 8.63960 18932 ft 295 kts 204°
2026-04-21 19:35 42.64741 8.63112 18938 ft 294 kts 204°
2026-04-21 19:36 42.62774 8.62253 18936 ft 292 kts 204°
2026-04-21 19:36 42.60862 8.61419 18938 ft 292 kts 204°
2026-04-21 19:36 42.58934 8.60579 18936 ft 291 kts 204°
2026-04-21 19:36 42.57005 8.59745 18938 ft 290 kts 204°
2026-04-21 19:37 42.55083 8.58911 18937 ft 290 kts 204°
2026-04-21 19:37 42.53160 8.58074 18939 ft 290 kts 204°
2026-04-21 19:37 42.51242 8.57241 18938 ft 290 kts 204°
2026-04-21 19:37 42.49321 8.56412 18936 ft 289 kts 204°
2026-04-21 19:38 42.47400 8.55581 18937 ft 289 kts 204°
2026-04-21 19:38 42.45485 8.54749 18937 ft 289 kts 204°
2026-04-21 19:38 42.44215 8.54199 18938 ft 288 kts 204°
2026-04-21 19:38 42.41689 8.53112 18939 ft 281 kts 204°
2026-04-21 19:39 42.39862 8.52326 18934 ft 269 kts 205°
2026-04-21 19:39 42.38085 8.51564 18934 ft 270 kts 205°
2026-04-21 19:39 42.36256 8.50790 18939 ft 280 kts 204°
2026-04-21 19:39 42.34364 8.49986 18940 ft 289 kts 204°
2026-04-21 19:40 42.32426 8.49151 18939 ft 295 kts 204°
2026-04-21 19:40 42.30452 8.48298 18938 ft 301 kts 204°
2026-04-21 19:40 42.28441 8.47429 18931 ft 305 kts 204°
2026-04-21 19:40 42.26409 8.46558 18936 ft 308 kts 204°
2026-04-21 19:41 42.24360 8.45682 18935 ft 310 kts 203°
2026-04-21 19:41 42.22310 8.44804 18934 ft 306 kts 204°
2026-04-21 19:41 42.20251 8.44205 18937 ft 311 kts 190°
2026-04-21 19:41 42.18074 8.44093 18937 ft 315 kts 186°
2026-04-21 19:42 42.15873 8.44058 18936 ft 318 kts 186°
2026-04-21 19:42 42.13661 8.43978 18940 ft 319 kts 188°
2026-04-21 19:42 42.11438 8.43812 18942 ft 320 kts 189°
2026-04-21 19:42 42.09205 8.43629 18927 ft 322 kts 188°
2026-04-21 19:43 42.06970 8.43457 18933 ft 322 kts 188°
2026-04-21 19:43 42.04721 8.43294 18903 ft 324 kts 188°
2026-04-21 19:43 42.02480 8.43122 18729 ft 319 kts 188°
2026-04-21 19:43 42.00287 8.42958 18513 ft 312 kts 188°
2026-04-21 19:44 41.98128 8.42798 18304 ft 309 kts 188°
2026-04-21 19:44 41.95984 8.42638 18074 ft 308 kts 188°
2026-04-21 19:44 41.93869 8.42482 17836 ft 307 kts 188°
2026-04-21 19:44 41.91739 8.42316 17592 ft 305 kts 188°
2026-04-21 19:45 41.89623 8.42160 17345 ft 303 kts 188°
2026-04-21 19:45 41.87514 8.41990 16513 ft 297 kts 188°
2026-04-21 19:45 41.85488 8.41816 15752 ft 286 kts 189°
2026-04-21 19:45 41.83474 8.41653 15015 ft 294 kts 188°
2026-04-21 19:46 41.81412 8.41491 14294 ft 300 kts 188°
2026-04-21 19:46 41.79316 8.41336 13571 ft 304 kts 188°
2026-04-21 19:46 41.77224 8.41186 12788 ft 293 kts 188°
2026-04-21 19:46 41.75232 8.41049 11292 ft 287 kts 188°
2026-04-21 19:47 41.73739 8.40973 10453 ft 171 kts 187°
2026-04-21 19:47 41.72523 8.41073 10094 ft 189 kts 179°
2026-04-21 19:47 41.71192 8.41520 9974 ft 198 kts 168°
2026-04-21 19:47 41.69880 8.41570 9952 ft 186 kts 200°
2026-04-21 19:48 41.68632 8.41139 9894 ft 183 kts 215°
2026-04-21 19:48 41.67606 8.40105 9674 ft 190 kts 226°
2026-04-21 19:48 41.66527 8.39000 9542 ft 200 kts 224°
2026-04-21 19:48 41.65379 8.37884 9354 ft 209 kts 222°
2026-04-21 19:49 41.64154 8.36695 8943 ft 223 kts 220°
2026-04-21 19:49 41.62652 8.35975 8535 ft 240 kts 191°
2026-04-21 19:49 41.60923 8.35823 7914 ft 256 kts 187°
2026-04-21 19:49 41.59143 8.35768 7310 ft 263 kts 178°
2026-04-21 19:50 41.57938 8.36237 6897 ft 273 kts 156°
2026-04-21 19:50 41.56283 8.38549 6078 ft 255 kts 113°
2026-04-21 19:50 41.56064 8.40811 5457 ft 241 kts 79°
2026-04-21 19:50 41.56674 8.42798 4842 ft 224 kts 61°
2026-04-21 19:51 41.57266 8.44626 4483 ft 203 kts 60°
2026-04-21 19:51 41.58119 8.46018 4130 ft 188 kts 43°
2026-04-21 19:51 41.59036 8.47255 3772 ft 187 kts 42°
2026-04-21 19:51 41.59959 8.48477 3434 ft 186 kts 42°
2026-04-21 19:52 41.60861 8.49695 3187 ft 181 kts 43°
2026-04-21 19:52 41.61734 8.50888 3098 ft 178 kts 43°
2026-04-21 19:52 41.62594 8.52072 3047 ft 177 kts 43°
2026-04-21 19:52 41.63453 8.53254 3022 ft 178 kts 43°
2026-04-21 19:53 41.64322 8.54454 3011 ft 180 kts 43°
2026-04-21 19:53 41.65200 8.55663 3005 ft 182 kts 43°
2026-04-21 19:53 41.66083 8.56884 3004 ft 183 kts 43°
2026-04-21 19:53 41.66948 8.58125 3006 ft 182 kts 49°
2026-04-21 19:54 41.67697 8.59474 3001 ft 183 kts 54°
2026-04-21 19:54 41.68406 8.60893 3000 ft 184 kts 55°
2026-04-21 19:54 41.69106 8.62321 3001 ft 183 kts 55°
2026-04-21 19:54 41.69811 8.63745 3002 ft 183 kts 54°
2026-04-21 19:55 41.70531 8.65152 3007 ft 183 kts 54°
2026-04-21 19:55 41.71259 8.66556 3007 ft 183 kts 54°
2026-04-21 19:55 41.72083 8.67827 2999 ft 180 kts 31°
2026-04-21 19:55 41.73204 8.68531 3007 ft 176 kts 21°
2026-04-21 19:56 41.73947 8.68949 3008 ft 174 kts 21°
2026-04-21 19:56 41.75395 8.69774 3016 ft 163 kts 21°
2026-04-21 19:56 41.76069 8.70172 3012 ft 157 kts 22°
2026-04-21 19:56 41.77305 8.70911 3013 ft 137 kts 21°
2026-04-21 19:57 41.78194 8.71399 2973 ft 140 kts 19°
2026-04-21 19:57 41.78811 8.71750 2756 ft 153 kts 24°
2026-04-21 19:57 41.79742 8.72374 2521 ft 145 kts 26°
2026-04-21 19:57 41.80966 8.73153 2242 ft 146 kts 23°
2026-04-21 19:58 41.81580 8.73520 2115 ft 146 kts 23°
2026-04-21 19:58 41.82503 8.74079 1922 ft 145 kts 24°
2026-04-21 19:58 41.83404 8.74645 1736 ft 138 kts 25°
2026-04-21 19:58 41.84263 8.75184 1557 ft 135 kts 24°
2026-04-21 19:59 41.85116 8.75712 1379 ft 134 kts 25°
2026-04-21 19:59 41.85937 8.76225 1208 ft 127 kts 25°
2026-04-21 19:59 41.86733 8.76716 1039 ft 125 kts 25°
2026-04-21 19:59 41.87478 8.77174 879 ft 125 kts 26°
2026-04-21 20:00 41.88234 8.77651 711 ft 126 kts 26°
2026-04-21 20:00 41.89027 8.78160 559 ft 127 kts 24°
2026-04-21 20:00 41.89821 8.78652 424 ft 123 kts 26°
2026-04-21 20:00 41.90588 8.79130 242 ft 121 kts 25°
2026-04-21 20:01 41.91355 8.79594 57 ft 119 kts 25°
2026-04-21 20:01 41.92001 8.80003 21 ft 58 kts 25°
2026-04-21 20:01 41.92164 8.80103 21 ft 15 kts 25°
2026-04-21 20:01 41.92188 8.80118 20 ft 5 kts 25°
2026-04-21 20:02 41.92230 8.80137 19 ft 7 kts
2026-04-21 20:02 41.92275 8.80098 19 ft 9 kts 293°
2026-04-21 20:02 41.92284 8.79991 18 ft 13 kts 274°
2026-04-21 20:02 41.92286 8.79863 18 ft 14 kts 247°
2026-04-21 20:03 41.92203 8.79795 18 ft 15 kts 205°
2026-04-21 20:03 41.92106 8.79734 20 ft 16 kts 206°
2026-04-21 20:03 41.92002 8.79668 18 ft 17 kts 204°
2026-04-21 20:03 41.91895 8.79603 18 ft 4 kts 204°
2026-04-21 20:04 41.91881 8.79556 18 ft 7 kts 298°
2026-04-21 20:04 41.91913 8.79537 18 ft 3 kts 343°
2026-04-21 20:04 41.91914 8.79537 18 ft 0 kts 345°